Weather History for Hamilton, OH

Change the Weather History Date:

Tuesday, May 8, 2012

  Actual Average (KCVG) Record (KCVG)
Temperature  
Mean Temperature 65 °F 61 °F  
Max Temperature 73 °F 72 °F 89 °F (1940)
Min Temperature 57 °F 51 °F 30 °F (1947)
Degree Days  
Heating Degree Days 0 5  
Month to date heating degree days 48  
Since 1 July heating degree days 4882  
Cooling Degree Days 0 1  
Month to date cooling degree days 8  
Year to date cooling degree days 26  
Growing Degree Days 15 (Base 50)    
Moisture  
Dew Point 56 °F    
Average Humidity 76    
Maximum Humidity 88    
Minimum Humidity 46    
Precipitation  
Precipitation 0.45 in 0.15 in 2.11 in (1972)
Month to date precipitation 1.25  
Year to date precipitation 14.91  
Snow  
Snow 0.00 in 0.00 in 0.00 in ()
Month to date snowfall 0.0  
Since 1 July snowfall 22.1  
Snow Depth -    
Sea Level Pressure  
Sea Level Pressure 29.84 in    
Wind  
Wind Speed 4 mph (NW)    
Max Wind Speed 14 mph    
Max Gust Speed 16 mph    
Visibility 6 miles    
Events Rain    
T = Trace of Precipitation, MM = Missing Value Source: NWS Daily Summary

Daily Weather History Graph

Daily Weather History Graph

Search for Another Location

Airport:

Trip Planner

Search our weather history database for the weather conditions in past years. The results will help you decide how hot, cold, wet, or windy it might be!

Date:

Astronomy

May. 08, 2012 Rise Set
Actual Time 6:30 AM EDT 8:38 PM EDT
Civil Twilight 6:01 AM EDT 9:08 PM EDT
Nautical Twilight 5:24 AM EDT 9:45 PM EDT
Astronomical Twilight 4:45 AM EDT 10:24 PM EDT
Moon 11:48 PM EDT (5/8) 8:38 AM EDT (5/8)
Length of Visible Light 15h 07m
Length of Day
14h 08m
Waning Gibbous, 91% of the Moon is Illuminated
May 8
Waning Gibbous
May 12
Last Quarter
May 20
New
May 28
First Quarter
Jun 4
Full

Hourly Weather History & Observations

Time (EDT) Temp. Dew Point Humidity Pressure Visibility Wind Dir Wind Speed Gust Speed Precip Events Conditions
12:11 AM 66.2 °F 62.6 °F 88% 29.85 in 4.0 mi Calm Calm - 0.02 in Rain Light Rain
12:53 AM 66.9 °F 62.1 °F 84% 29.82 in 5.0 mi Calm Calm - 0.04 in Rain Light Rain
1:53 AM 66.9 °F 62.1 °F 84% 29.80 in 4.0 mi Variable 3.5 mph - 0.03 in Rain Light Rain
2:53 AM 66.0 °F 61.0 °F 84% 29.78 in 5.0 mi Calm Calm - 0.04 in Rain Light Rain
3:46 AM 66.2 °F 60.8 °F 83% 29.79 in 3.0 mi Calm Calm - 0.03 in Rain Light Rain
3:53 AM 66.0 °F 61.0 °F 84% 29.78 in 4.0 mi Calm Calm - 0.03 in Rain Light Rain
4:53 AM 64.9 °F 61.0 °F 87% 29.78 in 4.0 mi Calm Calm - 0.01 in   Overcast
5:02 AM 64.4 °F 60.8 °F 88% 29.79 in 4.0 mi Calm Calm - N/A   Overcast
5:13 AM 66.2 °F 60.8 °F 83% 29.79 in 4.0 mi Calm Calm - N/A   Haze
5:46 AM 64.4 °F 60.8 °F 88% 29.80 in 2.5 mi WNW 4.6 mph - 0.02 in Rain Rain
5:53 AM 64.9 °F 61.0 °F 87% 29.79 in 2.5 mi West 3.5 mph - 0.02 in Rain Light Rain
6:14 AM 64.4 °F 60.8 °F 88% 29.80 in 2.0 mi Calm Calm - 0.04 in Rain Rain
6:36 AM 64.4 °F 60.8 °F 88% 29.81 in 3.0 mi Calm Calm - 0.05 in Rain Light Rain
6:53 AM 64.0 °F 59.0 °F 84% 29.81 in 7.0 mi NW 9.2 mph - 0.06 in Rain Light Rain
6:57 AM 62.6 °F 57.2 °F 82% 29.82 in 2.5 mi NNW 6.9 mph - 0.03 in Rain Heavy Rain
7:00 AM 62.6 °F 59.0 °F 88% 29.82 in 1.5 mi NNW 8.1 mph - 0.04 in Rain Heavy Rain
7:08 AM 62.6 °F 57.2 °F 82% 29.82 in 2.0 mi NW 6.9 mph - 0.05 in Rain Light Rain
7:12 AM 62.6 °F 57.2 °F 82% 29.82 in 1.8 mi NW 6.9 mph - 0.06 in Rain Rain
7:24 AM 62.6 °F 57.2 °F 82% 29.83 in 2.0 mi NW 9.2 mph - 0.09 in Rain Light Rain
7:32 AM 62.6 °F 57.2 °F 82% 29.83 in 4.0 mi NW 6.9 mph - 0.10 in Rain Light Rain
7:45 AM 62.6 °F 57.2 °F 82% 29.83 in 1.8 mi NW 5.8 mph - 0.14 in Rain Heavy Rain
7:53 AM 62.1 °F 57.9 °F 86% 29.83 in 1.5 mi WNW 6.9 mph - 0.18 in Rain Heavy Rain
7:55 AM 62.6 °F 57.2 °F 82% 29.84 in 1.8 mi WNW 5.8 mph - 0.00 in Rain Rain
8:03 AM 62.6 °F 57.2 °F 82% 29.84 in 2.5 mi WNW 5.8 mph - 0.02 in Rain Rain
8:22 AM 62.6 °F 57.2 °F 82% 29.84 in 3.0 mi WNW 4.6 mph - 0.04 in Rain Light Rain
8:33 AM 62.6 °F 57.2 °F 82% 29.85 in 10.0 mi NW 8.1 mph - 0.04 in   Overcast
8:53 AM 62.1 °F 57.0 °F 84% 29.85 in 10.0 mi NW 9.2 mph - 0.04 in   Overcast
9:01 AM 60.8 °F 55.4 °F 82% 29.86 in 9.0 mi NW 13.8 mph - N/A   Overcast
9:43 AM 60.8 °F 55.4 °F 82% 29.87 in 9.0 mi NNW 5.8 mph - N/A   Overcast
9:53 AM 62.1 °F 54.0 °F 75% 29.87 in 10.0 mi NW 11.5 mph - N/A   Overcast
10:53 AM 62.1 °F 53.1 °F 72% 29.88 in 10.0 mi NW 11.5 mph - N/A   Overcast
11:53 AM 64.9 °F 54.0 °F 68% 29.89 in 10.0 mi WNW 9.2 mph - N/A   Mostly Cloudy
12:08 PM 64.4 °F 53.6 °F 68% 29.89 in 10.0 mi WNW 8.1 mph - N/A   Scattered Clouds
12:53 PM 69.1 °F 53.1 °F 57% 29.88 in 10.0 mi NW 11.5 mph 16.1 mph N/A   Clear
1:53 PM 70.0 °F 53.1 °F 55% 29.87 in 10.0 mi WNW 10.4 mph - N/A   Clear
2:53 PM 72.0 °F 53.1 °F 51% 29.86 in 10.0 mi West 5.8 mph - N/A   Clear
3:53 PM 71.1 °F 52.0 °F 51% 29.86 in 10.0 mi Variable 5.8 mph - N/A   Mostly Cloudy
4:53 PM 73.0 °F 51.1 °F 46% 29.86 in 10.0 mi Variable 5.8 mph - N/A   Scattered Clouds
5:53 PM 73.0 °F 52.0 °F 48% 29.86 in 10.0 mi Variable 5.8 mph - N/A   Partly Cloudy
6:53 PM 71.1 °F 52.0 °F 51% 29.86 in 10.0 mi West 6.9 mph - N/A   Scattered Clouds
7:53 PM 68.0 °F 50.0 °F 52% 29.86 in 10.0 mi WNW 11.5 mph - N/A   Clear
8:53 PM 64.0 °F 46.9 °F 54% 29.88 in 10.0 mi WNW 6.9 mph - N/A   Clear
9:53 PM 59.0 °F 50.0 °F 72% 29.89 in 10.0 mi Calm Calm - N/A   Clear
10:53 PM 57.9 °F 52.0 °F 81% 29.91 in 10.0 mi Calm Calm - N/A   Clear
11:53 PM 57.9 °F 50.0 °F 75% 29.91 in 10.0 mi Calm Calm - N/A   Clear